TIME,DELAY(SENSOR),PRES,T(CTD),SAL,OXYGEN,RAWTEMP,T(OPTODE),TCPHASE,FLUOR,BETA(BETA700),BETA(BETA412),BETA(BETA440),CDOM,C(CSC),ED(ED411.90),ED(ED443.80),ED(ED489.40),ED(ED554.70),LU(LU412.20),LU(LU443.80),LU(LU489.40),LU(LU555.00),COMP,TILTX,TILTX(TILTY),CHECK
1353512977,5806,497.6700134277344000,17.1163997650146500,36.3722000122070300,214.1408996582031200,184.6246948242187500,17.1118602752685550,32.2004814147949200,50,101,58,58,55,13515,2146960566,2147514962,2147267538,2147465837,2147086619,2146960960,2147662546,2147125476,755,-1,8,14550
1353513106,5805,486.5100097656250000,17.2208995819091800,36.3927993774414060,214.3115997314453000,180.6891937255859400,17.2305507659912100,32.1367988586425800,50,101,59,58,56,13511,2146955419,2147514953,2147268096,2147464512,2147086985,2146955538,2147660900,2147124662,2905,-1,9,16221
1353513233,5806,475.3500061035156000,17.3701992034912100,36.4234008789062500,217.7276000976562500,176.2003021240234400,17.3659496307373050,31.8918495178222660,50,99,58,59,57,13511,2146957101,2147515995,2147265627,2147464310,2147086198,2146959890,2147659830,2147125010,1592,-1,9,6227
1353513362,5804,463.9100036621094000,17.5121002197265620,36.4534988403320300,221.2868041992187500,171.6533966064453000,17.5031204223632800,31.6420497894287100,50,102,59,57,56,13512,2146957010,2147516233,2147269293,2147462070,2147085366,2146958144,2147654774,2147130514,249,-2,8,31764
1353513477,5803,453.5899963378906000,17.6298999786376950,36.4828987121582000,227.8421020507812500,167.6361999511718800,17.6243400573730470,31.2527809143066400,51,99,58,58,55,13510,2146958418,2147514825,2147265691,2147462354,2147086006,2146960740,2147654198,2147125248,2375,-2,8,62321
1353513604,5807,442.0400085449219000,17.7080993652343750,36.4968986511230500,229.8074035644531200,165.1071014404297000,17.7006702423095700,31.1204204559326170,50,100,59,58,56,13512,2146959634,2147519049,2147264731,2147461403,2147084717,2146959552,2147655168,2147125659,1188,-1,8,29436
1353513721,5806,431.2900085449219000,17.7558994293212900,36.5009994506835940,227.5596923828125000,163.3612976074218800,17.7533607482910160,31.2088603973388670,51,99,57,57,56,13510,2146958902,2147515712,2147265682,2147459648,2147084269,2146960512,2147654381,2147125440,3195,-2,9,18091
1353513836,5807,420.6300048828125000,17.8682994842529300,36.5242004394531250,230.5507965087890600,159.7622070312500000,17.8620090484619140,31.0115699768066400,51,100,58,58,56,13511,2146957650,2147513545,2147267574,2147461412,2147077120,2146956781,2147655195,2147126390,1860,-1,9,22653
1353513965,5806,408.7399902343750000,17.9370002746582030,36.5354003906250000,231.6775054931640600,157.4403076171875000,17.9321193695068360,30.9247798919677730,51,99,59,59,56,13511,2146959762,2147514486,2147266029,2147457664,2147076562,2146956772,2147653046,2147126930,643,-2,9,33819
1353514080,5807,398.1300048828125000,17.9841003417968750,36.5449981689453100,232.0411987304687500,155.6636047363281200,17.9857692718505860,30.8831596374511720,50,98,59,58,57,13509,2146957248,2147514651,2147267849,2147459712,2147079158,2146958235,2147654921,2147126966,2646,-2,9,24244
1353514195,5805,387.4599914550781000,18.0426998138427730,36.5546989440918000,233.1201934814453000,153.9107971191406200,18.0387096405029300,30.8069190979003900,50,100,58,57,55,13508,2146955538,2147512932,2147268608,2147458285,2147086454,2146958436,2147653138,2147125805,1563,-1,9,35257
1353514324,5806,375.7399902343750000,18.0718002319335940,36.5546989440918000,232.3961029052734400,152.9888000488281200,18.0665607452392580,30.8298606872558600,51,101,59,58,56,13508,2146958701,2147515017,2147265472,2147456969,2147085842,2146964681,2147650541,2147127506,3520,-1,8,34265
1353514439,5804,365.4299926757812500,18.1180000305175780,36.5626983642578100,231.9055023193359400,151.4095001220703000,18.1142597198486330,30.8327407836914060,50,100,59,57,56,13508,2146959369,2147512749,2147265005,2147457225,2147072704,2146958610,2147650496,2147128521,2158,-2,9,36172
1353514566,5803,354.2900085449219000,18.1476001739501950,36.5600013732910160,229.9642944335937500,150.4987030029297000,18.1417808532714840,30.9160099029541000,51,99,58,58,56,13508,2146959058,2147513216,2147267776,2147454866,2147076937,2146960758,2147649974,2147128210,1028,-1,9,4493
1353514695,5805,343.2300109863281000,18.1910991668701170,36.5651016235351560,228.8648071289062500,149.0581970214843800,18.1852893829345700,30.9510307312011720,50,100,58,59,55,13505,2146954788,2147516269,2147267565,2147456969,2147084306,2146963282,2147656749,2147129764,3257,-2,9,32801
1353514822,5807,332.8099975585937500,18.2439994812011720,36.5696983337402340,228.0377960205078000,147.2093048095703000,18.2411499023437500,30.9673900604248050,50,100,59,57,56,13508,2146956260,2147512667,2147262518,2147455076,2147081234,2146961874,2147653988,2147127396,1772,-2,9,48689
1353514963,5806,321.6799926757812500,18.3234996795654300,36.5810012817382800,227.4407958984375000,144.5578002929687500,18.3212795257568360,30.9615192413330080,50,100,59,59,56,13509,2146957942,2147514358,2147264557,2147454208,2147081828,2146966692,2147654985,2147129307,506,-2,8,51153
1353515102,5804,311.1099853515625000,18.3764991760253900,36.5819015502929700,225.7174072265625000,142.7523040771484400,18.3758506774902340,31.0240001678466800,50,100,58,58,56,13506,2146961042,2147514898,2147265225,2147456393,2147082724,2146965083,2147653897,2147129572,2134,-2,9,31075
1353515262,5807,298.8099975585937500,18.4930992126464840,36.5956993103027340,223.1728973388672000,138.7286987304687500,18.4974803924560550,31.0992393493652340,50,101,58,58,56,13508,2146956955,2147515904,2147262418,2147452443,2147072694,2146964662,2147654866,2147124352,961,-1,9,2785
1353515389,5808,287.1300048828125000,18.6047000885009770,36.6040992736816400,221.4096069335937500,135.4465026855468800,18.5967292785644530,31.1452903747558600,50,101,58,57,57,13510,2146958683,2147517001,2147263817,2147453906,2147085814,2146965046,2147659867,2147127862,2616,-1,8,42035
1353515504,5805,276.2099914550781000,18.7176990509033200,36.6157989501953100,218.6143035888672000,131.2745056152343800,18.7229194641113280,31.2341194152832030,50,100,57,58,57,13504,2146956544,2147514523,2147266368,2147454729,2147084141,2146971364,2147671350,2147127533,1376,-1,8,57789
1353515621,5808,265.0199890136719000,18.9207992553710940,36.6363983154296900,216.9048004150390600,124.7040023803711000,18.9217395782470700,31.2354106903076170,50,100,58,58,56,13506,2146956571,2147515995,2147261933,2147452434,2147078866,2146968530,2147669010,2147131227,3505,-1,9,10650
1353515736,5806,253.8200073242187500,19.0839996337890620,36.6509017944335940,213.9279937744140600,119.4182968139648400,19.0817794799804700,31.3225307464599600,51,100,60,58,56,13504,2146956525,2147514057,2147266102,2147454116,2147078171,2146970148,2147672694,2147127652,2420,-2,9,1726
1353515851,5806,242.6799926757812500,19.1693000793457030,36.6363983154296900,210.0724945068359400,116.6558990478515600,19.1654396057128900,31.4931507110595700,51,99,59,58,56,13502,2146955382,2147513984,2147261824,2147450011,2147080329,2146972160,2147669906,2147132278,1406,-2,8,25652
1353515956,5807,232.5700073242187500,19.3761005401611330,36.6581993103027340,210.2875061035156200,109.9542007446289000,19.3685092926025400,31.3914794921875000,51,99,58,56,56,13501,2146956891,2147514861,2147264713,2147451501,2147084845,2146975122,2147672969,2147130962,3285,-2,9,15210
1353516071,5806,221.5700073242187500,19.2985992431640620,36.5864982604980500,233.3927001953125000,111.9831008911132800,19.3070106506347660,30.2379798889160160,50,99,57,59,55,13503,2146956864,2147514011,2147264155,2147451858,2147089051,2146978093,2147681929,2147131437,2379,-1,9,16765
1353516186,5807,210.5599975585937500,19.3097000122070300,36.5755004882812500,242.2922973632812500,111.7769012451171900,19.3132591247558600,29.8172206878662100,50,99,58,57,55,13502,2146959332,2147514505,2147264448,2147451885,2147085037,2146983890,2147693851,2147132187,1831,-1,9,50964
1353516303,5805,199.3899993896484400,19.3432998657226560,36.5760002136230500,244.7886047363281200,110.8350982666015600,19.3418102264404300,29.6909008026123050,50,99,58,58,55,13501,2146955730,2147513435,2147266194,2147450176,2147087469,2146988562,2147718994,2147133869,1080,-1,9,26862
1353516358,5806,194.2400054931640600,19.3656997680664060,36.5766983032226560,245.1551971435547000,109.9837036132812500,19.3676109313964840,29.6632804870605470,51,100,59,57,55,13503,2146955017,2147516900,2147263405,2147449088,2147086784,2146997248,2147722834,2147134006,690,-1,9,50442
1353516413,5807,189.1100006103515600,19.4199008941650400,36.5803985595703100,244.9217987060547000,108.2236022949218800,19.4209594726562500,29.6510391235351560,50,100,59,58,54,13500,2146955730,2147516004,2147265051,2147450642,2147087762,2147009828,2147741394,2147133988,945,-1,8,50636
1353516468,5802,183.9700012207031200,19.4578990936279300,36.5848007202148440,244.5888977050781200,107.1700973510742200,19.4528999328613280,29.6524600982666000,50,99,58,58,54,13501,2146955986,2147518043,2147268864,2147447049,2147089700,2147013686,2147762057,2147137636,1162,-1,9,63893
1353516523,5805,178.9100036621093800,19.5086994171142580,36.5889015197753900,243.4653015136718800,104.9823989868164000,19.5192394256591800,29.6751499176025400,51,100,58,56,55,13498,2146954313,2147516480,2147268278,2147447798,2147092150,2147025298,2147781092,2147138304,1068,-1,9,2764
1353516598,5803,172.5899963378906200,19.5872001647949220,36.5955009460449200,242.5321044921875000,102.6308975219726600,19.5905609130859380,29.6874599456787100,51,98,59,58,54,13500,2146957504,2147514395,2147267776,2147446765,2147091108,2147038253,2147807241,2147138002,871,-1,9,37468
1353516653,5803,168.4100036621093800,19.7057991027832030,36.6096000671386700,241.2422943115234400,99.0120010375976600,19.7003593444824220,29.6997108459472660,51,100,58,59,56,13497,2146955181,2147515913,2147267702,2147449709,2147089316,2147045833,2147823826,2147139876,1061,-2,9,26502
1353516708,5805,164.4400024414062500,19.7824001312255860,36.6244010925293000,239.3652954101562500,95.9725570678711000,19.7926006317138670,29.7471294403076170,52,99,58,58,55,13495,2146955611,2147514779,2147269604,2147449874,2147094994,2147056146,2147836736,2147141952,1012,-1,9,26270
1353516763,5805,160.6900024414062500,19.7924003601074220,36.6086997985839840,239.4026947021484400,96.1701431274414000,19.7866096496582030,29.7478694915771500,53,99,59,58,56,13493,2146958381,2147516873,2147271552,2147447067,2147095789,2147081773,2147883364,2147144850,841,-2,9,12563
1353516818,5806,157.1000061035156200,19.8593006134033200,36.6078987121582000,240.7259979248047000,94.1809692382812500,19.8469905853271500,29.6608390808105470,53,101,58,58,54,13486,2146955940,2147515017,2147272420,2147447734,2147098550,2147083282,2147896338,2147143451,476,-2,9,22119
1353516908,5805,151.8600006103515600,19.9888000488281250,36.6198005676269500,240.9008026123047000,89.4623413085937500,19.9902896881103500,29.5919799804687500,54,102,59,58,55,13493,2146956818,2147518436,2147269970,2147449664,2147099748,2147111012,2147934390,2147145142,232,-1,8,33154
1353516975,5804,148.5700073242187500,20.0916004180908200,36.6265983581543000,240.8385009765625000,86.4306793212890600,20.0823993682861330,29.5555706024169920,55,103,59,58,55,13490,2146956489,2147519744,2147272987,2147448457,2147101915,2147124160,2147957248,2147147145,608,-2,8,39392
1353517054,5806,144.6399993896484400,20.1413993835449220,36.6295013427734400,242.5223999023437500,84.7081069946289000,20.1347503662109380,29.4563198089599600,57,101,60,59,55,13486,2146957101,2147518683,2147275547,2147445513,2147105307,2147137609,2147983963,2147149750,3410,-2,9,57712
1353517133,5803,140.5099945068359400,20.2292003631591800,36.6349983215332000,242.3650970458984400,81.9689407348632800,20.2180194854736330,29.4284706115722660,57,100,59,59,56,13486,2146958098,2147518665,2147275693,2147445705,2147107812,2147162550,2148013622,2147156050,3131,-2,9,45442
1353517214,5805,136.5599975585937500,20.2679996490478500,36.6362991333007800,242.0561065673828000,80.5491027832031200,20.2611999511718750,29.4242801666259770,57,100,59,60,56,13488,2146952658,2147517440,2147274477,2147443968,2147110061,2147182244,2148054537,2147152859,2870,-2,9,5976
1353517293,5807,132.8999938964843800,20.3770008087158200,36.6427993774414060,241.0673065185547000,77.1544265747070300,20.3644504547119140,29.4258098602294920,57,107,58,59,55,13487,2146957549,2147520466,2147276745,2147446710,2147118674,2147205156,2148080402,2147158610,2748,-2,9,30694
1353517372,5807,129.8899993896484400,20.5746002197265620,36.6661987304687500,238.7622070312500000,70.8355865478515600,20.5567607879638670,29.4509105682373050,57,101,57,57,55,13487,2146957083,2147521142,2147281609,2147446802,2147125650,2147224292,2148118290,2147160987,2586,-2,9,55602
1353517519,5803,125.5800018310546900,20.9011993408203120,36.7176017761230500,231.9642028808593800,59.8110198974609400,20.8926792144775400,29.6284408569335940,56,102,59,58,57,13482,2146961920,2147523108,2147279350,2147445339,2147134902,2147272576,2148169088,2147164553,2810,-2,9,64021
1353517622,5804,121.8300018310546900,21.1655998229980470,36.7631988525390600,222.9470977783203000,51.3597106933593750,21.1505393981933600,29.9594993591308600,52,103,59,57,56,13493,2146956507,2147527040,2147281161,2147444635,2147141723,2147305408,2148221083,2147168310,2227,-2,9,12242
1353517737,5805,117.6500015258789000,21.2644004821777340,36.7607002258300800,221.8701934814453000,47.6897697448730500,21.2626094818115230,29.9657306671142580,52,100,59,58,56,13492,2146959469,2147523876,2147284416,2147443145,2147155382,2147358326,2148291949,2147174893,1542,-2,9,57752
1353517839,5806,113.3499984741211000,21.6018009185791000,36.7675018310546900,221.2552947998047000,36.9756698608398440,21.5901508331298830,29.8582191467285160,52,102,59,56,56,13488,2146959286,2147528420,2147287835,2147442934,2147178057,2147426733,2148392950,2147180800,1282,-2,9,39386
1353517918,5804,109.3600006103515600,21.7915992736816400,36.7621002197265600,224.3800964355468800,30.9497108459472660,21.7745990753173830,29.6253108978271500,53,104,59,57,55,13489,2146961206,2147528448,2147295076,2147442688,2147198985,2147496621,2148490989,2147192137,1304,-2,9,30201
1353517997,5803,105.3499984741211000,21.8733005523681640,36.7672996520996100,226.4210968017578000,27.8974990844726560,21.8680992126464840,29.4862003326416000,54,101,58,59,56,13488,2146956022,2147534409,2147296109,2147437092,2147218221,2147563465,2148568521,2147195227,658,-2,9,29093
1353518076,5807,101.4599990844726600,21.9964008331298830,36.7678985595703100,226.6118927001953000,24.2383708953857420,21.9802608489990230,29.4301700592041000,54,103,59,58,55,13485,2146961216,2147531419,2147297243,2147440914,2147248018,2147631597,2148652873,2147203108,473,-1,8,17270
1353518145,5804,98.5800018310546900,22.0832004547119140,36.7485008239746100,228.5921936035156200,21.1472091674804700,22.0750598907470700,29.2950096130371100,54,106,59,59,55,13484,2146960859,2147535387,2147301229,2147438098,2147265718,2147663488,2148685723,2147205129,905,-2,8,41907
1353518200,5804,96.7600021362304700,22.2140007019042970,36.7433013916015600,229.3305969238281200,17.6438694000244140,22.1825504302978500,29.2152595520019530,55,105,59,59,55,13482,2146961837,2147535195,2147301933,2147438418,2147275017,2147686107,2148703232,2147208521,1146,-1,9,7997
1353518267,5807,95.3399963378906200,22.3299007415771500,36.7402000427246100,230.5090026855468800,13.6931400299072270,22.3038597106933600,29.1089706420898440,54,105,59,59,54,13477,2146963227,2147537792,2147302262,2147437348,2147285568,2147706276,2148732050,2147209773,1864,-2,9,20325
1353518466,5804,93.4000015258789000,22.5699996948242200,36.7412986755371100,230.7913055419922000,5.6264700889587400,22.5518093109130860,28.9935207366943360,56,106,59,59,55,13477,2146964790,2147540169,2147299821,2147436900,2147291730,2147686400,2148675291,2147206098,1200,-2,9,64483
1353518545,5806,91.2200012207031200,22.8131008148193360,36.7372016906738300,229.9313049316406200,-2.1783020496368410,22.7920494079589840,28.9357109069824220,57,108,60,59,56,13473,2146966427,2147538944,2147302354,2147436150,2147316434,2147743369,2148748781,2147214628,1324,-2,9,41789
1353518636,5805,89.4000015258789000,23.0694007873535160,36.7420997619628900,227.3999938964843800,-9.8964300155639650,23.0299701690673830,28.9590091705322270,60,110,60,60,54,13468,2146961627,2147542683,2147305938,2147433892,2147347995,2147816585,2148846217,2147224137,760,-2,9,3319
1353518774,5804,87.0599975585937500,23.1375007629394530,36.7252998352050800,225.5755004882812500,-13.1113195419311520,23.1291809082031250,29.0063400268554700,63,116,59,60,55,13451,2146964955,2147546194,2147310802,2147431286,2147383396,2147897901,2148953298,2147230372,174,-1,9,5111
1353518829,5804,84.9899978637695300,23.3591003417968750,36.6814994812011700,225.2541046142578000,-18.0552501678466800,23.2818698883056640,28.9593696594238280,62,116,60,60,54,13446,2146966107,2147548096,2147315547,2147431460,2147423533,2147985883,2149064100,2147240594,2958,-1,9,35581
1353518896,5805,83.1600036621093800,23.5212993621826170,36.6487007141113300,224.6770019531250000,-24.9433307647705080,23.4948501586914060,28.9003105163574220,62,118,62,61,55,13439,2146969581,2147553563,2147323721,2147434605,2147477888,2148112146,2149233956,2147254811,114,-2,9,14095
1353519094,5805,81.3199996948242200,23.5538997650146500,36.6142005920410160,225.1661987304687500,-26.8677997589111330,23.5544109344482420,28.8525009155273440,65,125,61,60,55,13423,2146973988,2147560749,2147336557,2147434605,2147572708,2148339090,2149545517,2147283684,3245,-2,9,37047
1353519173,5804,79.2900009155273400,23.5986995697021500,36.5567016601562500,227.2781066894531200,-28.1683406829834000,23.5946693420410160,28.7349205017089840,72,129,62,60,54,13416,2146981577,2147569051,2147348544,2147429988,2147666258,2148543424,2149830857,2147309074,2596,-2,9,37259
1353519252,5803,77.3600006103515600,23.5921993255615230,36.5407981872558600,228.6602020263672000,-28.0002708435058600,23.5894699096679700,28.6712093353271500,74,130,61,61,53,13400,2146988443,2147576795,2147365330,2147433499,2147788315,2148814208,2150197156,2147338797,2456,-2,9,32533
1353519307,5804,75.9199981689453100,23.5914993286132800,36.5406990051269500,229.8000946044922000,-27.9836502075195300,23.5889492034912100,28.6174697875976560,79,134,60,60,54,13397,2146989421,2147587008,2147377362,2147433490,2147903076,2149046363,2150500635,2147371894,2259,-2,9,38580
1353519386,5804,73.0299987792968800,23.5282001495361330,36.4874000549316400,232.2958984375000000,-26.1707992553710940,23.5328292846679700,28.5232391357421880,88,139,62,61,55,13372,2146999149,2147606857,2147401051,2147433728,2148127195,2149448548,2151020050,2147421376,1982,-2,9,51127
1353519441,5808,70.4499969482421900,23.4850006103515620,36.4472007751464840,234.9582061767578000,-24.3306198120117200,23.4758892059326170,28.4233894348144530,87,143,61,61,56,13361,2147010925,2147622628,2147430171,2147436955,2148386880,2149930176,2151655341,2147489206,1792,-1,9,7554
1353519496,5806,68.0500030517578100,23.4993000030517580,36.4240989685058600,236.6026000976562500,-24.9356594085693360,23.4946098327636720,28.3406200408935550,91,148,60,60,53,13359,2147017097,2147636525,2147452873,2147436242,2148596178,2150285961,2152084598,2147540297,1793,-2,9,14256
1353519551,5805,65.7399978637695300,23.4820003509521500,36.4126014709472660,237.8932037353515600,-24.5063705444335940,23.4813308715820300,28.2871894836425780,94,144,62,62,53,13344,2147032155,2147654948,2147481883,2147441344,2148890678,2150780626,2152718299,2147614784,1659,-2,9,49729
1353519606,5806,63.7200012207031250,23.5438995361328120,36.4024009704589840,238.5543060302734400,-26.4167709350585940,23.5404491424560550,28.2337303161621100,93,148,62,62,54,13346,2147047414,2147677787,2147517750,2147443529,2149196498,2151286738,2153341796,2147696173,1407,-2,8,49966
1353519661,5805,61.7299995422363300,23.5541992187500000,36.4056015014648440,238.5413970947265600,-26.7617797851562500,23.5511207580566400,28.2300796508789060,89,151,61,61,54,13333,2147057115,2147691410,2147543826,2147449005,2149429467,2151649005,2153793700,2147764224,1029,-2,9,37644
1353519718,5806,59.6399993896484400,23.6298999786376950,36.4271011352539060,237.9062042236328000,-28.9431304931640620,23.6186599731445300,28.2315006256103500,89,143,63,62,54,13353,2147068379,2147711012,2147569115,2147452196,2149723913,2152076973,2154316406,2147837540,727,-1,9,55512
1353519773,5806,57.4599990844726560,23.7024993896484380,36.4463005065918000,236.1484985351562500,-31.1510295867919920,23.6870498657226560,28.2839298248291000,79,142,61,61,55,13366,2147083584,2147731940,2147595730,2147452452,2150078628,2152594029,2154920091,2147922029,709,-2,9,1664
1353519828,5806,55.5900001525878900,23.7301998138427730,36.4477996826171900,235.0933074951172000,-32.2085609436035160,23.7198200225830080,28.3190097808837900,78,138,61,61,56,13369,2147097033,2147743414,2147618285,2147456649,2150386614,2153052187,2155457472,2148004397,915,-2,9,35648
1353519970,5808,52.9799995422363300,23.7311000823974600,36.3769989013671900,236.1669006347656200,-32.5324211120605500,23.7298507690429700,28.2660503387451170,82,139,62,60,55,13361,2147118025,2147774528,2147656274,2147462802,2150867620,2153687926,2156158628,2148132333,840,-1,9,26080
1353520003,5805,52.1800003051757800,23.7173004150390620,36.3684005737304700,236.8872985839843800,-32.0807113647460940,23.7158603668212900,28.2386894226074220,80,150,62,61,54,13348,2147127305,2147781366,2147663798,2147465709,2151014162,2153865298,2156335597,2148176246,960,-2,9,16237
1353520060,5806,50.2700004577636700,23.7056999206542970,36.3596992492675800,237.9396972656250000,-31.7290191650390620,23.7049598693847660,28.1956005096435550,84,150,62,62,54,13335,2147144182,2147800082,2147690185,2147467958,2151312256,2154236498,2156780013,2148259611,1204,-2,8,19707
1353520093,5806,48.5999984741210940,23.6949996948242200,36.3433990478515600,238.6118011474609400,-31.2368907928466800,23.6897106170654300,28.1713409423828120,85,153,62,62,54,13337,2147162066,2147821449,2147717595,2147471177,2151806262,2154858934,2157434395,2148409453,1323,-1,9,490
1353520126,5805,46.7599983215332000,23.6786994934082030,36.3263015747070300,239.7227020263672000,-30.9029998779296880,23.6793708801269530,28.1255798339843750,90,150,62,62,54,13313,2147186212,2147844891,2147743945,2147481115,2152280868,2155441115,2158047652,2148553462,1389,-2,9,26641
1353520171,5806,44.3499984741210940,23.6884002685546880,36.3007011413574200,240.8623962402343800,-31.2254791259765620,23.6893596649169920,28.0706195831298830,94,171,63,63,52,13304,2147207643,2147872768,2147776941,2147490313,2152769965,2155969298,2158575305,2148702189,1231,-2,10,34887
1353520204,5805,42.6800003051757800,23.6590995788574220,36.2770996093750000,242.1549987792968800,-29.9161796569824220,23.6487998962402340,28.0295600891113280,99,168,62,63,53,13291,2147225078,2147887076,2147805238,2147498468,2153235538,2156474066,2159094720,2148851702,1045,-2,9,34565
1353520249,5805,40.4399986267089840,23.6460990905761720,36.2742004394531250,243.7263946533203000,-29.8237304687500000,23.6459293365478500,27.9614295959472660,104,173,63,63,51,13255,2147254345,2147913197,2147835117,2147507849,2153843730,2157106331,2159736694,2149074779,1066,-2,9,48306
1353520294,5807,38.2999992370605500,23.6417999267578120,36.2686004638671900,244.7310943603515600,-29.6004791259765620,23.6390209197998050,27.9199790954589840,106,173,63,63,54,13257,2147282057,2147944960,2147873600,2147522386,2154402304,2157698194,2160405732,2149274889,1020,-1,8,56522
1353520327,5806,36.7599983215332000,23.6436004638671880,36.2662010192871100,245.0379943847656200,-29.7009906768798830,23.6421298980712900,27.9054393768310550,107,175,65,64,53,13251,2147316333,2147975405,2147915986,2147534976,2155133092,2158500406,2161207533,2149552905,921,-1,9,47984